ZKPY/FNJ METAR and TAF weather

Enter ICAO airport designator
Station Type Date Time Source
ZKPY METAR 2014/10/31 02:00 UTC NOAA

ZKPY 310200Z 0000MPS 5000 BR SCT200 17/06 Q1019 NOSIG


Station Type Date Time Source
ZKPY Decoded METAR 2014/10/31 02:00 UTC NOAA

Pyongyang, Korea, North (ZKPY) 39-02N 125-47E 38M
Oct 30, 2014 - 10:00 PM EDT / 2014.10.31 0200 UTC
Visibility: 3 mile(s):0
Sky conditions: partly cloudy
Weather: mist
Temperature: 62 F (17 C)
Dew Point: 42 F (6 C)
Relative Humidity: 48%
Pressure (altimeter): 30.09 in. Hg (1019 hPa)
ob: ZKPY 310200Z 0000MPS 5000 BR SCT200 17/06 Q1019 NOSIG
cycle: 2

Station Type Date Time Source
ZKPY TAF 2019/04/25 12:33 UTC NOAA

TAF TAF ZKPY 251030Z 2512/2612 05004MPS 4000 -RA OVC017
BECMG 2518/2520 36005MPS 3000 BR
BECMG 2600/2602 6000 NSC TX13/2605Z TN06/2522Z

Example: see airport list